Regional Weather Roundup
Issued by NWS Upton, NY

Current Version | Previous Version | Graphics & Text | Print | Product List | Glossary Off
Versions: 1 2 3 4 5 6 7 8 9 10 11 12 13 14 15 16 17 18 19 20 21 22 23 24 25 26 27 28 29 30 31 32 33 34 35 36 37 38 39 40 41 42 43 44 45 46 47 48 49 50

000
ASUS41 KOKX 271805
RWROKX

REGIONAL WEATHER ROUNDUP
NATIONAL WEATHER SERVICE NEW YORK NY
200 PM EDT SUN JUL 27 2014

NOTE: "FAIR" INDICATES FEW OR NO CLOUDS BELOW 12,000 FEET WITH NO
SIGNIFICANT WEATHER AND/OR OBSTRUCTIONS TO VISIBILITY.

NYZ071-072-176-178-NJZ106-104-271900-
NEW YORK CITY METRO AREA


CITY           SKY/WX    TMP DP  RH WIND       PRES   REMARKS
CENTRAL PARK   PTSUNNY   81  70  69 CALM      29.75F
LAGUARDIA APRT PTSUNNY   83  67  58 SW8       29.72F
KENNEDY INTL   PTSUNNY   82  71  69 S12       29.74F
NEWARK/LIBERTY PTSUNNY   84  69  60 SW7       29.72F
BRNX BOT. GARD   N/A     84  68  58 W3        29.74F
TETERBORO      CLOUDY    85  68  56 S9        29.71F
$$

NYZ177-179-078>081-271900-
LONG ISLAND NEW YORK

CITY           SKY/WX    TMP DP  RH WIND       PRES   REMARKS
FARMINGDALE    PTSUNNY   79  71  76 S10       29.74F
ISLIP          PTSUNNY   81  69  67 SW17      29.73F
SHIRLEY        CLOUDY    78  69  73 S15G22    29.76F
WESTHAMPTON    CLOUDY    76  68  76 SW9G18    29.77F
MONTAUK POINT    N/A     75  70  84 S7        29.78F
$$

NYZ052-065-067-271900-
HUDSON VALLEY

CITY           SKY/WX    TMP DP  RH WIND       PRES   REMARKS
WHITE PLAINS   MOSUNNY   81  68  64 W7        29.73F
NEWBURGH       PTSUNNY   79  72  78 W7        29.73F
MONTGOMERY     PTSUNNY   83  67  58 W9        29.71S
POUGHKEEPSIE   MOSUNNY   82  70  66 SW7       29.70F
ALBANY         PTSUNNY   81  68  64 S6        29.68F
$$

NJZ001-105-106-008-010-013-015-019>022-104-271900-
NEW JERSEY

CITY           SKY/WX    TMP DP  RH WIND       PRES   REMARKS
NEWARK/LIBERTY PTSUNNY   84  69  60 SW7       29.72F
TETERBORO      CLOUDY    85  68  56 S9        29.71F
CALDWELL       MOSUNNY   83  67  58 W5        29.73F
MORRISTOWN     MOSUNNY   84  68  58 SW7       29.73F
SOMERVILLE     MOSUNNY   84  67  56 VRB3      29.71F
LINDEN         FAIR      86  68  55 NW9       29.74F
SUSSEX         MOSUNNY   87  68  52 SW8       29.72S HX  90
ANDOVER          N/A     83  65  54 VRB5      29.74F
TRENTON        MOSUNNY   86  67  52 NW8       29.74S
MILLVILLE      MOSUNNY   84  69  60 W10G16    29.77S
ATLANTIC CITY  PTSUNNY   84  70  62 SW10      29.76F
WRIGHTSTOWN    PTSUNNY   87  70  56 W8        29.72F HX  91
TOMS RIVER     CLOUDY    88  66  48 W10       29.74F HX  90
BELMAR         CLOUDY    86  70  58 W8        29.74F HX  90
$$

PAZ047>061-062-071-271900-
EASTERN PENNSYLVANIA

CITY           SKY/WX    TMP DP  RH WIND       PRES   REMARKS
PHILADELPHIA   PTSUNNY   88  68  51 SW12      29.74F HX  91
ALLENTOWN      SUNNY     85  66  53 SW13      29.74F
SCRANTON       PTSUNNY   85  62  46 SW6       29.74F
$$

CTZ002-004>006-009-010-012-RIZ004-006-007-MAZ004-011-015-271900-
SOUTHERN NEW ENGLAND
 IN CT

CITY           SKY/WX    TMP DP  RH WIND       PRES   REMARKS
BRADLEY INTL   PTSUNNY   77  69  76 S15G21    29.71F
HARTFORD       CLOUDY    75  69  81 S12       29.71F
DANBURY        MOSUNNY   78  68  71 SW8       29.75F
WTRBRY/OXFORD  PTSUNNY   77  68  73 SW9       29.77F
BRIDGEPORT     SUNNY     82  71  69 SW13      29.73F
MERIDEN        PTSUNNY   81  68  64 S14G20    29.73F
NEW HAVEN      PTSUNNY   80  70  71 S6        29.73F
CHESTER        FAIR      77  70  78 S12       29.76F
GROTON         LGT RAIN  71  70  96 S8        29.75F FOG
WILLIMANTIC    LGT RAIN  76  70  82 S9        29.74F

 IN RI

CITY           SKY/WX    TMP DP  RH WIND       PRES   REMARKS
PROVIDENCE     CLOUDY    73  69  87 S12       29.77F
BLOCK ISLAND   PTSUNNY   75  68  78 S16G23    29.78F
WESTERLY       HVY RAIN  72  69  90 CALM      29.77F FOG

 IN MA

CITY           SKY/WX    TMP DP  RH WIND       PRES   REMARKS
BOSTON         CLOUDY    71  68  90 S10       29.76F
WORCESTER      CLOUDY    70  68  93 SW10      29.77S
WESTFIELD      RAIN      77  70  79 S14       29.71F
PROVINCETOWN   CLOUDY    70  64  83 S10G17    29.80S
NANTUCKET      CLOUDY    72  67  84 S12       29.82F
$$

ANZ330-335-338-340-345-350-353-355-271900-
COASTAL MARINE OBSERVATIONS


STATION/POSITION TIME  SKY/WX   TEMP    WIND        PRES    VSBY  WAVE
                                AIR SEA DIR/SP/G                  HT/PER
                 (UTC)          (F)     (DEG/KT/KT) (MB)    (MI)  (FT/S)
NY HARB ENTRANCE NOT AVBL
4S FIRE IS       NOT AVBL
23SW MTP         1800            74 71              1007.2          5/ 5
HUDSON CANYON    1800            74 74  170/ 16/ 19 1008.2          3/ 5
EXECUTION ROCKS  1800            78 73  190/  4/  6   N/A
WESTERN LI SOUND 1800            76     240/  6/  8   N/A           1
CENTRAL LI SOUND 1700            75 72  190/ 12/ 14   N/A           2/ 3
EASTERN LI SOUND 1700            71 67  190/  8/ 10   N/A
ROBBINS REEF     1800            78     160/ 11/ 12   N/A
$$


>>>>>>>>>>>>>>>>>>>>>>>>>>>> KEY <<<<<<<<<<<<<<<<<<<<<<<<<<<
>                                                          <
>     SKY/WX - SKY CONDITION/PRESENT WEATHER               <
>     TMP    - TEMPERATURE IN FAHRENHEIT                   <
>     DP     - DEWPOINT IN FAHRENHEIT                      <
>     RH     - RELATIVE HUMIDITY IN PERCENT                <
>     WIND   - DIRECTION AND SPEED IN MPH                  <
>     PRES   - MEAN SEA LEVEL PRESSURE IN INCHES OF HG     <
>     WCI    - WIND CHILL INDEX                            <
>     VSB    - VISIBILITY IN MILES                         <
>     HX     - HEAT INDEX                                  <
>     TC     - TEMPERATURE IN CELSIUS                      <
>     VRB    - VARIABLE WIND DIRECTION                     <
>                                                          <
>>>>>>>>>>>>>>>>>>>>>>>>>>>> KEY <<<<<<<<<<<<<<<<<<<<<<<<<<<





USA.gov is the U.S. government's official web portal to all federal, state and local government web resources and services.